Weather History for Wright-Patt AFB, OH

Change the Weather History Date:

Monday, November 25, 2013

  Actual Average Record
Temperature  
Mean Temperature 26 °F -  
Max Temperature 36 °F 47 °F 65 °F (2006)
Min Temperature 17 °F 31 °F 12 °F (2005)
Degree Days  
Heating Degree Days 38    
Moisture  
Dew Point 19 °F    
Average Humidity 66    
Maximum Humidity 92    
Minimum Humidity 35    
Precipitation  
Precipitation 0.03 in - - ()
Sea Level Pressure  
Sea Level Pressure 30.30 in    
Wind  
Wind Speed 9 mph (SSW)    
Max Wind Speed 21 mph    
Max Gust Speed 25 mph    
Visibility 8 miles    
Events Snow    
Averages and records for this station are not official NWS values.
T = Trace of Precipitation, MM = Missing Value Source: NWS Daily Summary

Daily Weather History Graph

Daily Weather History Graph

Search for Another Location

Airport:

Trip Planner

Search our weather history database for the weather conditions in past years. The results will help you decide how hot, cold, wet, or windy it might be!

Date:

Astronomy

Nov. 25, 2013 Rise Set
Actual Time 7:32 AM EST 5:13 PM EST
Civil Twilight 7:02 AM EST 5:43 PM EST
Nautical Twilight 6:29 AM EST 6:16 PM EST
Astronomical Twilight 5:57 AM EST 6:49 PM EST
Moon No Moon Rise 12:49 PM EST (11/25)
Length of Visible Light 10h 40m
Length of Day
9h 41m
Waning Gibbous, 51% of the Moon is Illuminated
Nov 25
Waning Gibbous
Nov 25
Last Quarter
Dec 2
New
Dec 9
First Quarter
Dec 17
Full

Hourly Weather History & Observations

Time (EST) Temp. Windchill Dew Point Humidity Pressure Visibility Wind Dir Wind Speed Gust Speed Precip Events Conditions
12:58 AM 17.1 °F 6.6 °F 10.6 °F 76% 30.55 in 10.0 mi South 8.1 mph - N/A   Clear
1:58 AM 17.4 °F 10.4 °F 10.9 °F 76% 30.53 in 10.0 mi South 4.6 mph - N/A   Clear
2:58 AM 17.8 °F 10.9 °F 11.5 °F 76% 30.51 in 10.0 mi SSE 4.6 mph - N/A   Clear
3:58 AM 18.9 °F 10.8 °F 12.2 °F 75% 30.49 in 10.0 mi SSE 5.8 mph - N/A   Clear
4:58 AM 19.6 °F 9.7 °F 12.4 °F 74% 30.47 in 10.0 mi SSE 8.1 mph - N/A   Clear
5:58 AM 19.2 °F 12.5 °F 12.0 °F 74% 30.47 in 10.0 mi SSW 4.6 mph - N/A   Clear
6:58 AM 19.2 °F 14.1 °F 11.7 °F 72% 30.45 in 10.0 mi SSE 3.5 mph - N/A   Clear
7:58 AM 19.9 °F 11.1 °F 12.4 °F 72% 30.43 in 10.0 mi SSE 6.9 mph - N/A   Partly Cloudy
8:58 AM 23.4 °F 13.5 °F 12.7 °F 64% 30.43 in 10.0 mi South 9.2 mph - N/A   Clear
9:58 AM 26.6 °F 16.8 °F 12.0 °F 54% 30.41 in 10.0 mi South 10.4 mph - N/A   Partly Cloudy
10:58 AM 30.6 °F 22.4 °F 10.6 °F 43% 30.38 in 10.0 mi South 9.2 mph - N/A   Scattered Clouds
11:58 AM 33.3 °F 27.1 °F 10.2 °F 38% 30.33 in 10.0 mi South 6.9 mph - N/A   Scattered Clouds
12:58 PM 34.2 °F 25.7 °F 10.0 °F 37% 30.28 in 10.0 mi South 11.5 mph - N/A   Mostly Cloudy
1:58 PM 34.7 °F 27.5 °F 10.6 °F 37% 30.27 in 10.0 mi SSW 9.2 mph - N/A   Mostly Cloudy
2:58 PM 34.9 °F 27.1 °F 11.1 °F 37% 30.26 in 10.0 mi SSW 10.4 mph - N/A   Mostly Cloudy
3:13 PM 35.6 °F 27.5 °F 10.4 °F 35% 30.27 in 10.0 mi SSW 11.5 mph - N/A Snow Snow Grains
3:36 PM 35.6 °F 28.6 °F 12.2 °F 38% 30.26 in 10.0 mi SSW 9.2 mph - N/A Snow Light Snow
3:46 PM 35.6 °F 28.6 °F 12.2 °F 38% 30.21 in 10.0 mi SSW 9.2 mph - N/A   Overcast
3:58 PM 35.8 °F 28.3 °F 12.6 °F 38% 30.26 in 10.0 mi SW 10.4 mph - N/A   Overcast
4:58 PM 35.4 °F 27.3 °F 13.8 °F 41% 30.26 in 10.0 mi SSW 11.5 mph - N/A   Overcast
5:55 PM 34.7 °F 28.8 °F 15.8 °F 46% 30.26 in 10.0 mi SW 6.9 mph - N/A   Overcast
6:56 PM 35.6 °F 27.1 °F 15.4 °F 44% 30.25 in 10.0 mi SSW 12.7 mph - N/A   Overcast
7:08 PM 35.6 °F 24.5 °F 19.4 °F 52% 30.25 in 10.0 mi SSW 20.7 mph 25.3 mph N/A Snow Light Snow
7:33 PM 35.6 °F 25.5 °F 19.4 °F 52% 30.24 in 10.0 mi SW 17.3 mph - N/A   Overcast
7:58 PM 36.1 °F 26.5 °F 17.8 °F 47% 30.24 in 10.0 mi SSW 16.1 mph - 0.00 in   Overcast
8:58 PM 35.6 °F 28.0 °F 20.8 °F 55% 30.24 in 10.0 mi SSW 10.4 mph - N/A Snow Light Snow
9:15 PM 32.0 °F 21.6 °F 26.6 °F 80% 30.21 in 4.0 mi SSW 15.0 mph - N/A Snow Light Snow
9:23 PM 32.0 °F 21.6 °F 26.6 °F 80% 30.21 in 4.0 mi SSW 15.0 mph - N/A Snow Light Snow
9:33 PM 32.0 °F 23.0 °F 28.4 °F 87% 30.21 in 3.0 mi SSW 11.5 mph - N/A Snow Light Snow
9:43 PM 32.0 °F 22.5 °F 28.4 °F 87% 30.21 in 2.5 mi SW 12.7 mph - N/A Snow Light Snow
9:53 PM 32.0 °F 23.6 °F 28.4 °F 87% 30.21 in 2.5 mi SSW 10.4 mph - N/A Snow Light Snow
9:58 PM 31.1 °F 21.9 °F 28.8 °F 91% 30.25 in 2.5 mi SW 11.5 mph - 0.00 in Snow Light Snow
10:17 PM 32.0 °F 24.2 °F 28.4 °F 87% 30.21 in 3.0 mi SW 9.2 mph - N/A Snow Light Snow
10:27 PM 32.0 °F 24.8 °F 28.4 °F 87% 30.20 in 4.0 mi SW 8.1 mph - N/A Snow Light Snow
10:37 PM 32.0 °F 25.6 °F 28.4 °F 87% 30.21 in 6.0 mi SW 6.9 mph - N/A Snow Light Snow
10:47 PM 32.0 °F 25.6 °F 28.4 °F 87% 30.20 in 7.0 mi SW 6.9 mph - N/A Snow Light Snow
10:51 PM 32.0 °F 25.6 °F 28.4 °F 87% 30.20 in 10.0 mi SW 6.9 mph - N/A Snow Light Snow
10:58 PM 30.9 °F 23.5 °F 28.9 °F 92% 30.23 in 10.0 mi SSW 8.1 mph - 0.00 in   Overcast
11:20 PM 32.0 °F 26.4 °F 28.4 °F 87% 30.19 in 10.0 mi SSW 5.8 mph - N/A   Overcast
11:47 PM 32.0 °F 26.4 °F 28.4 °F 87% 30.18 in 4.0 mi South 5.8 mph - N/A Snow Light Snow
11:58 PM 30.9 °F 23.5 °F 28.6 °F 91% 30.23 in 6.0 mi SSW 8.1 mph - 0.00 in Snow Light Snow